"Pseudo-MPEC" for P21CRMB

Created 2023 Feb 3 16:22:10 UT using Find_Orb

Click here for an explanation of pseudo-MPECs

 
 Astrometry: 
     P21CRMB* C2023 01 14[jQbOXYoRAstrometry*UrjYBw1=Lq)I:(;redacted;Mf8Pst@$F52
     P21CRMB  C2023 01 146J7p?CTNox-7urclick.!j7%^?@e_v$ipRdNh4?^-b8[XkBI@n2BF52
     P21CRMB  C2023 01 14^#hereGwCAb\fLhjpaX6EeR8d)Bh#jEfor)#FexplanationBB7`F52

Station data:
(F52) Pan-STARRS 2, Haleakala  (N20.707382 W156.255910)  US/Hawaii.
   Observers J. Bulger, T. Dukes, T. Lowe, A. Schultz, M. Willman. Measurers
   K. Chambers, S. Chastel, T. de Boer, L. Denneau, J. Fairlamb, H.
   Flewelling, M. Huber, C.-C. Lin, E. Magnier, Y. Ramanjooloo, R. Wainscoat,
   R. Weryk. 1.8-m Ritchey-Chrétien + CCD.

Orbital elements:  P21CRMB
   Perihelion 2022 Nov 6.97468 +/- 83.5 TT = 23:23:32 (JD 2459890.47468)
Epoch 2023 Jan 15.0 TT = JDT 2459959.5   Earth MOID: 0.3237   Ma: 0.0270
M  25.05545097 +/- 38               (J2000 ecliptic)             AutoNEOCP
n   0.36298929 +/- 0.33             Peri.   59.07920 +/- 100
a   1.94628681 +/- 1.18             Node    11.05107 +/- 32
e   0.3699779 +/- 0.267             Incl.   17.30713 +/- 15
P   2.72/991.75d           H 20.98  G  0.15   U 12.0  SR
q 1.22620359 +/- 0.767    Q 2.66637004 +/- 82
From 3 observations 2023 Jan. 14 (27.2 min); mean residual 0".01
Residuals in arcseconds: 
230114 F52  .01+  .01-    230114 F52  .02-  .02+    230114 F52  .01+  .01-    

Ephemerides (geocentric):
Date (UTC) HH   RA             Dec           delta  r     elong  mag " sig PA
---- --------  ------------   ------------  ------ ------ -----  --- --------
2023 02 03 16  11 07 38.098   +48 23 22.79  .56579 1.4638 139.7 21.8  45d 138
2023 02 03 17  11 07 31.705   +48 23 00.95  .56586 1.4640 139.8 21.8  45d 138
2023 02 03 18  11 07 25.309   +48 22 39.03  .56593 1.4642 139.8 21.8  45d 138
2023 02 03 19  11 07 18.910   +48 22 17.04  .56600 1.4644 139.8 21.8  45d 138
2023 02 03 20  11 07 12.507   +48 21 54.98  .56608 1.4645 139.9 21.8  45d 138
2023 02 03 21  11 07 06.101   +48 21 32.84  .56615 1.4647 139.9 21.8  45d 138
2023 02 03 22  11 06 59.692   +48 21 10.63  .56622 1.4649 139.9 21.8  45d 138
2023 02 03 23  11 06 53.279   +48 20 48.34  .56629 1.4651 139.9 21.8  45d 138
2023 02 04 00  11 06 46.864   +48 20 25.98  .56636 1.4653 140.0 21.8  45d 138
2023 02 04 01  11 06 40.445   +48 20 03.54  .56643 1.4655 140.0 21.8  45d 138
2023 02 04 02  11 06 34.024   +48 19 41.03  .56650 1.4657 140.0 21.8  45d 138
2023 02 04 03  11 06 27.599   +48 19 18.44  .56658 1.4659 140.0 21.8  45d 138
2023 02 04 04  11 06 21.171   +48 18 55.78  .56665 1.4660 140.1 21.8  45d 138
2023 02 04 05  11 06 14.740   +48 18 33.04  .56672 1.4662 140.1 21.8  45d 138
2023 02 04 06  11 06 08.306   +48 18 10.23  .56680 1.4664 140.1 21.8  45d 138
2023 02 04 07  11 06 01.870   +48 17 47.35  .56687 1.4666 140.2 21.8  45d 138
2023 02 04 08  11 05 55.430   +48 17 24.39  .56694 1.4668 140.2 21.8  45d 138
2023 02 04 09  11 05 48.987   +48 17 01.35  .56702 1.4670 140.2 21.8  45d 138
2023 02 04 10  11 05 42.542   +48 16 38.24  .56709 1.4672 140.2 21.8  45d 138
2023 02 04 11  11 05 36.093   +48 16 15.05  .56716 1.4674 140.3 21.8  45d 138
2023 02 04 12  11 05 29.642   +48 15 51.79  .56724 1.4676 140.3 21.8  45d 138
2023 02 04 13  11 05 23.188   +48 15 28.45  .56731 1.4677 140.3 21.8  46d 138
2023 02 04 14  11 05 16.731   +48 15 05.04  .56739 1.4679 140.3 21.8  46d 138
2023 02 04 15  11 05 10.271   +48 14 41.56  .56746 1.4681 140.4 21.8  46d 138
2023 02 04 16  11 05 03.809   +48 14 17.99  .56754 1.4683 140.4 21.8  46d 138
2023 02 04 17  11 04 57.344   +48 13 54.36  .56762 1.4685 140.4 21.8  46d 138
2023 02 04 18  11 04 50.876   +48 13 30.64  .56769 1.4687 140.5 21.8  46d 138
2023 02 04 19  11 04 44.405   +48 13 06.85  .56777 1.4689 140.5 21.8  46d 138
2023 02 04 20  11 04 37.932   +48 12 42.99  .56785 1.4691 140.5 21.8  46d 138
2023 02 04 21  11 04 31.456   +48 12 19.05  .56792 1.4693 140.5 21.8  46d 138
2023 02 04 22  11 04 24.978   +48 11 55.03  .56800 1.4694 140.6 21.8  46d 138
2023 02 04 23  11 04 18.497   +48 11 30.94  .56808 1.4696 140.6 21.8  46d 138
2023 02 05 00  11 04 12.014   +48 11 06.78  .56815 1.4698 140.6 21.8  46d 138
2023 02 05 01  11 04 05.528   +48 10 42.53  .56823 1.4700 140.6 21.8  46d 138
2023 02 05 02  11 03 59.039   +48 10 18.22  .56831 1.4702 140.7 21.8  46d 138
2023 02 05 03  11 03 52.548   +48 09 53.82  .56839 1.4704 140.7 21.8  46d 138
2023 02 05 04  11 03 46.055   +48 09 29.35  .56847 1.4706 140.7 21.8  46d 138
2023 02 05 05  11 03 39.559   +48 09 04.81  .56855 1.4708 140.7 21.8  46d 138
2023 02 05 06  11 03 33.061   +48 08 40.18  .56863 1.4709 140.8 21.8  46d 138
2023 02 05 07  11 03 26.560   +48 08 15.49  .56871 1.4711 140.8 21.8  46d 138
2023 02 05 08  11 03 20.058   +48 07 50.71  .56879 1.4713 140.8 21.8  46d 138
2023 02 05 09  11 03 13.552   +48 07 25.86  .56887 1.4715 140.8 21.8  46d 138
2023 02 05 10  11 03 07.045   +48 07 00.94  .56895 1.4717 140.9 21.8  46d 138
2023 02 05 11  11 03 00.535   +48 06 35.94  .56903 1.4719 140.9 21.8  46d 138
2023 02 05 12  11 02 54.023   +48 06 10.86  .56911 1.4721 140.9 21.8  46d 138
2023 02 05 13  11 02 47.509   +48 05 45.71  .56919 1.4723 141.0 21.8  46d 138
2023 02 05 14  11 02 40.993   +48 05 20.48  .56927 1.4725 141.0 21.8  46d 138
2023 02 05 15  11 02 34.474   +48 04 55.17  .56935 1.4727 141.0 21.8  46d 138